This is the latest recevied weather packets stored in our database for station/object SQ9RHX-13. If no packets are shown the sender has not sent any weather packets the latest 10 day(s).
| Time | Temp. | Humidity | Pressure | Rain* | Wind** | Luminosity | Snow |
|---|---|---|---|---|---|---|---|
| 1777758304 | 10° C | 73% | 1022.4 hPa | 0 mm | - | 0 W/m² | - |
| 1777758003 | 10° C | 72% | 1022.4 hPa | 0 mm | - | 0 W/m² | - |
| 1777757703 | 10.56° C | 71% | 1022.4 hPa | 0 mm | - | 0 W/m² | - |
| 1777757404 | 10.56° C | 71% | 1022.4 hPa | 0 mm | - | 0 W/m² | - |
| 1777757102 | 10.56° C | 71% | 1022.2 hPa | 0 mm | - | 0 W/m² | - |
| 1777756803 | 10.56° C | 69% | 1022.3 hPa | 0 mm | - | 0 W/m² | - |
| 1777756505 | 10.56° C | 69% | 1022.4 hPa | 0 mm | - | 0 W/m² | - |
| 1777756203 | 10.56° C | 67% | 1022.6 hPa | 0 mm | - | 0 W/m² | - |
| 1777755904 | 11.11° C | 65% | 1022.7 hPa | 0 mm | - | 0 W/m² | - |
| 1777755603 | 11.67° C | 65% | 1022.5 hPa | 0 mm | - | 0 W/m² | - |
| 1777755303 | 11.67° C | 64% | 1022.6 hPa | 0 mm | - | 0 W/m² | - |
| 1777755003 | 11.67° C | 63% | 1022.6 hPa | 0 mm | - | 0 W/m² | - |
| 1777754702 | 11.67° C | 63% | 1022.8 hPa | 0 mm | - | 0 W/m² | - |
| 1777754404 | 11.67° C | 62% | 1022.7 hPa | 0 mm | - | 0 W/m² | - |
| 1777754103 | 12.22° C | 61% | 1022.8 hPa | 0 mm | - | 0 W/m² | - |
| 1777753804 | 12.22° C | 61% | 1022.7 hPa | 0 mm | - | 0 W/m² | - |
| 1777753502 | 12.78° C | 60% | 1022.7 hPa | 0 mm | - | 0 W/m² | - |
| 1777753202 | 12.78° C | 58% | 1022.7 hPa | 0 mm | - | 0 W/m² | - |
| 1777752905 | 13.33° C | 57% | 1022.9 hPa | 0 mm | - | 0 W/m² | - |
| 1777752604 | 13.89° C | 56% | 1022.7 hPa | 0 mm | - | 0 W/m² | - |
| 1777752303 | 13.89° C | 54% | 1022.8 hPa | 0 mm | - | 0 W/m² | - |
| 1777752005 | 13.89° C | 55% | 1022.7 hPa | 0 mm | - | 0 W/m² | - |
| 1777751706 | 13.33° C | 56% | 1022.8 hPa | 0 mm | - | 0 W/m² | - |
| 1777751403 | 13.33° C | 56% | 1022.9 hPa | 0 mm | - | 0 W/m² | - |
| 1777751104 | 13.33° C | 57% | 1022.9 hPa | 0 mm | - | 0 W/m² | - |
* Rain latest hour (hover to see other rain measurements)
** Current wind speed in m/s (hover to see current wind gust speed)